QPF
0.00 0.01 0.02 0.03 0.02 0.02 0.03 0.05 0.09 0.10 0.12 0.14 0.15 0.19 0.19 0.18 0.18 0.17 0.14 0.11 0.11 0.10 0.10 0.09 0.11 0.13 0.10 0.06 0.06 0.06 0.07 0.06 0.06 0.05 0.05 0.04 0.04 0.03 0.03 0.02 0.02 0.02 0.03 0.03
0.00 0.00 0.00 0.01 0.01 0.02 0.02 0.03 0.05 0.06 0.08 0.11 0.13 0.13 0.11 0.08 0.05 0.04 0.05 0.05 0.04 0.04 0.04 0.04 0.03 0.03 0.03 0.03 0.02 0.02 0.03 0.03 0.03 0.03 0.03 0.02 0.02 0.03 0.03 0.02 0.02 0.02 0.03 0.04
0.00 0.00 0.00 0.00 0.01 0.01 0.01 0.01 0.02 0.04 0.05 0.05 0.07 0.07 0.07 0.06 0.04 0.05 0.03 0.01 0.01 0.01 0.01 0.01 0.01 0.01 0.02 0.03 0.02 0.01 0.02 0.02 0.02 0.03 0.03 0.02 0.02 0.02 0.02 0.02 0.03 0.03 0.03 0.04
0.00 0.00 0.00 0.00 0.01 0.01 0.01 0.01 0.01 0.02 0.03 0.03 0.04 0.03 0.02 0.01 0.01 0.01 0.01 0.00 0.00 0.00 0.00 0.00 0.00 0.00 0.00 0.00 0.01 0.01 0.01 0.01 0.01 0.01 0.02 0.02 0.01 0.01 0.01 0.02 0.02 0.03 0.04 0.05
0.00 0.00 0.00 0.00 0.00 0.00 0.00 0.01 0.01 0.01 0.01 0.01 0.01 0.01 0.00 0.00 0.00 0.00 0.00 0.00 0.00 0.00 0.00 0.00 0.00 0.00 0.00 0.00 0.00 0.00 0.00 0.00 0.00 0.00 0.01 0.01 0.01 0.01 0.00 0.01 0.01 0.01 0.03 0.03
0.00 0.00 0.00 0.00 0.00 0.00 0.00 0.01 0.01 0.00 0.00 0.00 0.00 0.00 0.00 0.00 0.00 0.00 0.00 0.00 0.00 0.00 0.00 0.00 0.00 0.00 0.00 0.00 0.00 0.00 0.00 0.00 0.00 0.00 0.00 0.00 0.00 0.00 0.00 0.00 0.00 0.00 0.01 0.01
0.00 0.00 0.00 0.00 0.00 0.00 0.00 0.01 0.00 0.00 0.00 0.00 0.00 0.00 0.00 0.00 0.00 0.00 0.00 0.00 0.00 0.00 0.00 0.00 0.00 0.00 0.00 0.00 0.00 0.00 0.00 0.00 0.00 0.00 0.00 0.00 0.00 0.00 0.00 0.00 0.00 0.00 0.00 0.01
0.00 0.00 0.00 0.00 0.00 0.00 0.00 0.00 0.00 0.00 0.00 0.00 0.00 0.00 0.00 0.00 0.00 0.00 0.00 0.00 0.00 0.00 0.00 0.00 0.00 0.00 0.00 0.00 0.00 0.00 0.00 0.00 0.00 0.00 0.00 0.00 0.00 0.00 0.00 0.00 0.00 0.00 0.00 0.01
0.00 0.00 0.00 0.00 0.00 0.00 0.00 0.00 0.00 0.00 0.00 0.00 0.00 0.00 0.00 0.00 0.00 0.00 0.00 0.00 0.00 0.00 0.00 0.00 0.00 0.00 0.00 0.00 0.00 0.00 0.00 0.00 0.00 0.00 0.00 0.00 0.00 0.00 0.00 0.00 0.00 0.00 0.00 0.01
0.00 0.00 0.00 0.00 0.00 0.00 0.00 0.00 0.00 0.00 0.00 0.00 0.00 0.00 0.00 0.00 0.00 0.00 0.00 0.00 0.00 0.00 0.00 0.00 0.00 0.00 0.00 0.00 0.00 0.00 0.00 0.00 0.00 0.00 0.00 0.00 0.00 0.00 0.00 0.00 0.00 0.00 0.00 0.01
0.00 0.00 0.00 0.00 0.00 0.00 0.00 0.00 0.00 0.00 0.00 0.00 0.00 0.00 0.00 0.00 0.00 0.00 0.00 0.00 0.00 0.00 0.00 0.00 0.00 0.00 0.00 0.00 0.00 0.00 0.00 0.00 0.00 0.00 0.00 0.00 0.00 0.00 0.00 0.00 0.00 0.00 0.01 0.01
0.00 0.00 0.00 0.00 0.00 0.00 0.00 0.00 0.00 0.00 0.00 0.00 0.00 0.00 0.00 0.00 0.00 0.00 0.00 0.00 0.00 0.00 0.00 0.00 0.00 0.00 0.00 0.00 0.00 0.00 0.00 0.00 0.00 0.00 0.00 0.00 0.00 0.00 0.00 0.00 0.00 0.00 0.00 0.01
0.00 0.00 0.00 0.00 0.00 0.00 0.00 0.00 0.00 0.00 0.00 0.00 0.00 0.00 0.00 0.00 0.00 0.00 0.00 0.00 0.00 0.00 0.00 0.00 0.00 0.00 0.00 0.00 0.00 0.00 0.00 0.00 0.00 0.00 0.00 0.00 0.00 0.00 0.00 0.00 0.00 0.00 0.00 0.00
0.00 0.00 0.00 0.00 0.00 0.00 0.00 0.00 0.00 0.00 0.00 0.00 0.00 0.00 0.00 0.00 0.00 0.00 0.00 0.00 0.00 0.00 0.00 0.00 0.00 0.00 0.00 0.00 0.00 0.00 0.00 0.00 0.00 0.00 0.00 0.00 0.00 0.00 0.00 0.01 0.01 0.00 0.00 0.00
0.00 0.00 0.00 0.00 0.00 0.00 0.00 0.00 0.00 0.00 0.00 0.00 0.00 0.00 0.00 0.00 0.00 0.00 0.00 0.00 0.00 0.00 0.00 0.00 0.00 0.00 0.00 0.00 0.00 0.00 0.00 0.00 0.00 0.00 0.00 0.00 0.00 0.00 0.00 0.00 0.00 0.00 0.00 0.00
0.00 0.00 0.00 0.00 0.00 0.00 0.00 0.00 0.00 0.00 0.00 0.00 0.00 0.00 0.00 0.00 0.00 0.00 0.00 0.00 0.00 0.00 0.00 0.00 0.00 0.00 0.00 0.00 0.00 0.00 0.00 0.00 0.00 0.00 0.00 0.00 0.00 0.00 0.00 0.00 0.00 0.00 0.00 0.00
0.00 0.00 0.00 0.00 0.00 0.00 0.00 0.00 0.00 0.00 0.00 0.00 0.00 0.00 0.00 0.00 0.00 0.00 0.00 0.00 0.00 0.00 0.00 0.00 0.00 0.00 0.00 0.00 0.00 0.00 0.00 0.00 0.00 0.00 0.00 0.00 0.00 0.00 0.00 0.00 0.00 0.00 0.00 0.00
0.00 0.00 0.00 0.00 0.00 0.00 0.00 0.00 0.00 0.00 0.00 0.00 0.00 0.00 0.00 0.00 0.00 0.00 0.00 0.00 0.00 0.00 0.00 0.00 0.00 0.00 0.00 0.00 0.00 0.00 0.00 0.00 0.00 0.00 0.00 0.00 0.00 0.00 0.00 0.00 0.00 0.00 0.00 0.00
0.00 0.00 0.00 0.00 0.00 0.00 0.00 0.00 0.00 0.00 0.00 0.00 0.00 0.00 0.00 0.00 0.00 0.00 0.00 0.00 0.00 0.00 0.00 0.00 0.00 0.00 0.00 0.00 0.00 0.00 0.00 0.00 0.00 0.00 0.00 0.00 0.00 0.00 0.00 0.00 0.00 0.00 0.00 0.00
0.00 0.00 0.00 0.00 0.00 0.00 0.00 0.00 0.00 0.00 0.00 0.00 0.00 0.00 0.00 0.00 0.00 0.00 0.00 0.00 0.00 0.00 0.00 0.00 0.00 0.00 0.00 0.00 0.00 0.00 0.00 0.00 0.00 0.00 0.00 0.00 0.00 0.00 0.00 0.00 0.00 0.00 0.00 0.00
0.00 0.00 0.00 0.00 0.00 0.00 0.00 0.00 0.00 0.00 0.00 0.00 0.00 0.00 0.00 0.00 0.00 0.00 0.00 0.00 0.00 0.00 0.00 0.00 0.00 0.00 0.00 0.00 0.00 0.00 0.00 0.00 0.00 0.00 0.00 0.00 0.00 0.00 0.00 0.00 0.00 0.00 0.00 0.00
0.00 0.00 0.00 0.00 0.00 0.00 0.00 0.00 0.00 0.00 0.00 0.00 0.00 0.00 0.00 0.00 0.00 0.00 0.00 0.00 0.00 0.00 0.00 0.00 0.00 0.00 0.00 0.00 0.00 0.00 0.00 0.00 0.00 0.00 0.00 0.00 0.00 0.00 0.00 0.00 0.00 0.00 0.00 0.00
0.00 0.00 0.00 0.00 0.00 0.00 0.00 0.00 0.00 0.00 0.00 0.00 0.00 0.00 0.00 0.00 0.00 0.00 0.00 0.00 0.00 0.00 0.00 0.00 0.00 0.00 0.00 0.00 0.00 0.00 0.00 0.00 0.00 0.00 0.00 0.00 0.00 0.00 0.00 0.00 0.00 0.00 0.00 0.00
0.00 0.00 0.00 0.00 0.00 0.00 0.00 0.00 0.00 0.00 0.00 0.00 0.00 0.00 0.00 0.00 0.00 0.00 0.00 0.00 0.00 0.00 0.00 0.00 0.00 0.00 0.00 0.00 0.00 0.00 0.00 0.00 0.00 0.00 0.00 0.00 0.00 0.00 0.00 0.00 0.00 0.00 0.00 0.00
0.00 0.00 0.00 0.00 0.00 0.00 0.00 0.00 0.00 0.00 0.00 0.00 0.00 0.00 0.00 0.00 0.00 0.00 0.00 0.00 0.00 0.00 0.00 0.00 0.00 0.00 0.00 0.00 0.00 0.00 0.00 0.00 0.00 0.00 0.00 0.00 0.00 0.00 0.00 0.00 0.00 0.00 0.00 0.00
0.00 0.00 0.00 0.00 0.00 0.00 0.00 0.00 0.00 0.00 0.00 0.00 0.00 0.00 0.00 0.00 0.00 0.00 0.00 0.00 0.00 0.00 0.00 0.00 0.00 0.00 0.00 0.00 0.00 0.00 0.00 0.00 0.00 0.00 0.00 0.00 0.00 0.00 0.00 0.00 0.00 0.00 0.00 0.00
0.00 0.00 0.00 0.00 0.00 0.00 0.00 0.00 0.00 0.00 0.00 0.00 0.00 0.00 0.00 0.00 0.00 0.00 0.00 0.00 0.00 0.00 0.00 0.00 0.00 0.00 0.00 0.00 0.00 0.00 0.00 0.00 0.00 0.00 0.00 0.00 0.00 0.00 0.00 0.00 0.00 0.00 0.00 0.00
MSLP
1021.95 1022.04 1022.16 1022.32 1022.53 1022.77 1023.01 1023.21 1023.35 1023.39 1023.30 1023.07 1022.69 1022.18 1021.58 1020.91 1020.21 1019.52 1018.86 1018.27 1017.74 1017.27 1016.87 1016.50 1016.17 1015.84 1015.52 1015.19 1014.86 1014.52 1014.19 1013.88 1013.59 1013.33 1013.10 1012.91 1012.75 1012.63 1012.53 1012.47 1012.45 1012.46 1012.50 1012.58
1022.12 1022.19 1022.28 1022.40 1022.54 1022.71 1022.87 1023.00 1023.07 1023.06 1022.94 1022.71 1022.36 1021.91 1021.36 1020.76 1020.13 1019.49 1018.88 1018.31 1017.79 1017.33 1016.92 1016.56 1016.23 1015.93 1015.65 1015.37 1015.11 1014.85 1014.61 1014.38 1014.16 1013.96 1013.77 1013.60 1013.44 1013.29 1013.15 1013.02 1012.90 1012.80 1012.73 1012.68
1022.22 1022.26 1022.30 1022.35 1022.42 1022.50 1022.57 1022.61 1022.62 1022.56 1022.42 1022.20 1021.88 1021.48 1021.01 1020.48 1019.93 1019.36 1018.80 1018.27 1017.78 1017.34 1016.94 1016.58 1016.27 1016.00 1015.76 1015.54 1015.35 1015.18 1015.02 1014.87 1014.73 1014.59 1014.45 1014.30 1014.14 1013.96 1013.76 1013.56 1013.35 1013.14 1012.95 1012.77
1022.24 1022.23 1022.22 1022.21 1022.20 1022.19 1022.18 1022.15 1022.10 1022.00 1021.85 1021.64 1021.36 1021.02 1020.62 1020.18 1019.71 1019.21 1018.71 1018.23 1017.77 1017.34 1016.95 1016.61 1016.32 1016.07 1015.87 1015.71 1015.58 1015.48 1015.40 1015.33 1015.26 1015.17 1015.07 1014.94 1014.77 1014.57 1014.33 1014.06 1013.78 1013.47 1013.18 1012.90
1022.16 1022.11 1022.05 1021.99 1021.92 1021.85 1021.78 1021.70 1021.61 1021.49 1021.34 1021.15 1020.92 1020.64 1020.31 1019.94 1019.54 1019.11 1018.67 1018.22 1017.79 1017.38 1017.01 1016.67 1016.39 1016.17 1015.99 1015.87 1015.79 1015.75 1015.73 1015.71 1015.69 1015.65 1015.58 1015.47 1015.31 1015.09 1014.83 1014.52 1014.18 1013.82 1013.45 1013.10
1021.96 1021.89 1021.80 1021.70 1021.60 1021.51 1021.41 1021.31 1021.21 1021.10 1020.96 1020.81 1020.62 1020.39 1020.13 1019.82 1019.48 1019.10 1018.70 1018.28 1017.87 1017.47 1017.09 1016.77 1016.49 1016.27 1016.12 1016.02 1015.97 1015.96 1015.98 1016.00 1016.02 1016.01 1015.97 1015.88 1015.73 1015.52 1015.26 1014.94 1014.58 1014.19 1013.78 1013.39
1021.64 1021.55 1021.46 1021.37 1021.27 1021.18 1021.10 1021.02 1020.93 1020.85 1020.75 1020.63 1020.48 1020.30 1020.09 1019.82 1019.52 1019.17 1018.79 1018.39 1017.98 1017.58 1017.20 1016.87 1016.59 1016.37 1016.22 1016.13 1016.10 1016.11 1016.15 1016.19 1016.24 1016.26 1016.24 1016.17 1016.05 1015.87 1015.62 1015.32 1014.97 1014.59 1014.18 1013.78
1021.20 1021.13 1021.06 1021.00 1020.94 1020.89 1020.85 1020.81 1020.77 1020.73 1020.67 1020.60 1020.49 1020.35 1020.16 1019.92 1019.63 1019.30 1018.92 1018.52 1018.10 1017.69 1017.30 1016.95 1016.66 1016.44 1016.28 1016.19 1016.16 1016.18 1016.23 1016.30 1016.36 1016.41 1016.42 1016.38 1016.29 1016.15 1015.95 1015.69 1015.37 1015.02 1014.64 1014.25
1020.66 1020.63 1020.61 1020.60 1020.61 1020.62 1020.65 1020.68 1020.70 1020.71 1020.70 1020.66 1020.59 1020.47 1020.29 1020.06 1019.78 1019.43 1019.05 1018.63 1018.19 1017.77 1017.36 1017.00 1016.70 1016.46 1016.30 1016.21 1016.18 1016.20 1016.26 1016.34 1016.42 1016.49 1016.53 1016.53 1016.49 1016.39 1016.24 1016.04 1015.78 1015.48 1015.15 1014.79
1020.08 1020.09 1020.13 1020.19 1020.27 1020.37 1020.47 1020.57 1020.66 1020.73 1020.77 1020.76 1020.71 1020.60 1020.43 1020.19 1019.90 1019.54 1019.14 1018.70 1018.24 1017.80 1017.38 1017.00 1016.69 1016.44 1016.28 1016.19 1016.16 1016.19 1016.26 1016.35 1016.45 1016.54 1016.61 1016.65 1016.65 1016.61 1016.52 1016.38 1016.19 1015.94 1015.66 1015.34
1019.49 1019.55 1019.64 1019.78 1019.94 1020.12 1020.31 1020.48 1020.63 1020.75 1020.82 1020.85 1020.81 1020.70 1020.52 1020.28 1019.96 1019.59 1019.17 1018.71 1018.24 1017.78 1017.35 1016.97 1016.65 1016.40 1016.24 1016.15 1016.13 1016.17 1016.24 1016.35 1016.47 1016.58 1016.68 1016.76 1016.81 1016.81 1016.78 1016.70 1016.57 1016.38 1016.15 1015.88
1018.93 1019.03 1019.19 1019.40 1019.63 1019.89 1020.14 1020.37 1020.58 1020.73 1020.84 1020.87 1020.84 1020.74 1020.55 1020.30 1019.97 1019.58 1019.15 1018.68 1018.21 1017.74 1017.31 1016.93 1016.61 1016.37 1016.21 1016.13 1016.11 1016.16 1016.25 1016.37 1016.50 1016.64 1016.76 1016.87 1016.95 1017.00 1017.02 1016.99 1016.91 1016.79 1016.61 1016.39
1018.44 1018.58 1018.79 1019.06 1019.36 1019.67 1019.98 1020.26 1020.50 1020.68 1020.80 1020.85 1020.82 1020.71 1020.52 1020.26 1019.93 1019.54 1019.11 1018.64 1018.17 1017.71 1017.29 1016.91 1016.60 1016.37 1016.22 1016.14 1016.14 1016.19 1016.29 1016.42 1016.56 1016.71 1016.85 1016.98 1017.09 1017.17 1017.22 1017.23 1017.21 1017.13 1017.01 1016.84
1018.02 1018.20 1018.46 1018.77 1019.12 1019.48 1019.83 1020.14 1020.41 1020.61 1020.73 1020.79 1020.75 1020.64 1020.46 1020.20 1019.87 1019.49 1019.06 1018.61 1018.16 1017.71 1017.30 1016.94 1016.64 1016.42 1016.27 1016.20 1016.20 1016.26 1016.36 1016.49 1016.64 1016.79 1016.94 1017.08 1017.21 1017.31 1017.38 1017.43 1017.44 1017.42 1017.35 1017.25
1017.66 1017.88 1018.19 1018.55 1018.94 1019.34 1019.71 1020.04 1020.32 1020.52 1020.65 1020.70 1020.67 1020.56 1020.38 1020.13 1019.82 1019.45 1019.05 1018.62 1018.19 1017.76 1017.37 1017.02 1016.73 1016.51 1016.37 1016.30 1016.29 1016.35 1016.44 1016.57 1016.72 1016.87 1017.02 1017.16 1017.29 1017.41 1017.50 1017.57 1017.62 1017.64 1017.63 1017.59
1017.35 1017.62 1017.97 1018.38 1018.80 1019.23 1019.62 1019.96 1020.24 1020.44 1020.57 1020.62 1020.59 1020.48 1020.31 1020.07 1019.78 1019.44 1019.06 1018.66 1018.25 1017.85 1017.47 1017.13 1016.85 1016.63 1016.48 1016.40 1016.39 1016.43 1016.52 1016.64 1016.77 1016.92 1017.07 1017.21 1017.34 1017.46 1017.57 1017.66 1017.74 1017.80 1017.84 1017.87
1017.08 1017.40 1017.80 1018.24 1018.70 1019.14 1019.54 1019.89 1020.17 1020.37 1020.49 1020.54 1020.51 1020.41 1020.25 1020.03 1019.76 1019.45 1019.10 1018.72 1018.33 1017.95 1017.58 1017.25 1016.97 1016.74 1016.58 1016.49 1016.46 1016.49 1016.56 1016.67 1016.79 1016.93 1017.07 1017.21 1017.35 1017.47 1017.58 1017.69 1017.80 1017.90 1017.99 1018.07
1016.83 1017.20 1017.63 1018.11 1018.59 1019.05 1019.46 1019.80 1020.08 1020.27 1020.39 1020.44 1020.41 1020.33 1020.18 1019.99 1019.74 1019.45 1019.13 1018.78 1018.41 1018.04 1017.68 1017.35 1017.06 1016.82 1016.64 1016.53 1016.48 1016.49 1016.55 1016.64 1016.76 1016.89 1017.03 1017.17 1017.30 1017.43 1017.55 1017.68 1017.80 1017.93 1018.06 1018.19
1016.60 1017.00 1017.47 1017.96 1018.46 1018.92 1019.32 1019.67 1019.93 1020.13 1020.24 1020.29 1020.28 1020.21 1020.08 1019.91 1019.70 1019.43 1019.14 1018.81 1018.46 1018.10 1017.74 1017.40 1017.10 1016.84 1016.64 1016.51 1016.44 1016.43 1016.47 1016.55 1016.66 1016.79 1016.93 1017.08 1017.22 1017.35 1017.48 1017.62 1017.76 1017.90 1018.05 1018.22
1016.39 1016.81 1017.28 1017.78 1018.26 1018.71 1019.11 1019.44 1019.70 1019.89 1020.01 1020.07 1020.07 1020.03 1019.93 1019.79 1019.60 1019.37 1019.10 1018.80 1018.46 1018.11 1017.75 1017.41 1017.09 1016.81 1016.59 1016.43 1016.34 1016.31 1016.33 1016.41 1016.51 1016.65 1016.79 1016.94 1017.09 1017.24 1017.38 1017.52 1017.67 1017.82 1017.99 1018.16
1016.22 1016.62 1017.07 1017.54 1017.99 1018.42 1018.79 1019.11 1019.36 1019.55 1019.68 1019.76 1019.79 1019.77 1019.71 1019.60 1019.45 1019.26 1019.02 1018.73 1018.41 1018.07 1017.71 1017.36 1017.03 1016.73 1016.48 1016.30 1016.19 1016.14 1016.15 1016.22 1016.32 1016.46 1016.62 1016.78 1016.94 1017.10 1017.25 1017.40 1017.55 1017.71 1017.87 1018.05
1016.09 1016.44 1016.83 1017.24 1017.65 1018.03 1018.37 1018.66 1018.91 1019.10 1019.25 1019.35 1019.41 1019.43 1019.41 1019.35 1019.24 1019.09 1018.88 1018.63 1018.32 1017.99 1017.64 1017.28 1016.93 1016.62 1016.35 1016.14 1016.00 1015.94 1015.93 1015.99 1016.10 1016.24 1016.40 1016.58 1016.75 1016.92 1017.08 1017.24 1017.39 1017.55 1017.72 1017.89
1016.00 1016.27 1016.58 1016.91 1017.24 1017.57 1017.87 1018.14 1018.37 1018.57 1018.74 1018.87 1018.97 1019.03 1019.06 1019.05 1018.99 1018.87 1018.70 1018.48 1018.20 1017.88 1017.53 1017.17 1016.81 1016.48 1016.19 1015.96 1015.80 1015.71 1015.69 1015.74 1015.84 1015.98 1016.15 1016.33 1016.52 1016.70 1016.88 1017.05 1017.21 1017.36 1017.53 1017.70
1015.95 1016.11 1016.31 1016.55 1016.81 1017.07 1017.32 1017.56 1017.79 1018.00 1018.18 1018.35 1018.49 1018.60 1018.67 1018.71 1018.69 1018.62 1018.49 1018.30 1018.04 1017.74 1017.40 1017.04 1016.67 1016.33 1016.02 1015.77 1015.59 1015.47 1015.43 1015.46 1015.55 1015.68 1015.85 1016.04 1016.23 1016.43 1016.62 1016.80 1016.97 1017.14 1017.31 1017.49
1015.89 1015.95 1016.05 1016.19 1016.37 1016.57 1016.78 1016.99 1017.21 1017.42 1017.63 1017.82 1018.00 1018.15 1018.27 1018.34 1018.37 1018.33 1018.23 1018.07 1017.84 1017.56 1017.23 1016.87 1016.51 1016.16 1015.84 1015.56 1015.35 1015.21 1015.15 1015.15 1015.22 1015.34 1015.50 1015.69 1015.89 1016.10 1016.30 1016.50 1016.69 1016.88 1017.07 1017.26
1015.81 1015.77 1015.78 1015.84 1015.95 1016.10 1016.27 1016.46 1016.67 1016.88 1017.10 1017.31 1017.51 1017.69 1017.84 1017.95 1018.00 1018.00 1017.93 1017.79 1017.59 1017.32 1017.01 1016.67 1016.31 1015.95 1015.62 1015.33 1015.10 1014.94 1014.84 1014.82 1014.86 1014.96 1015.11 1015.29 1015.49 1015.71 1015.92 1016.14 1016.35 1016.56 1016.77 1017.00
1015.65 1015.54 1015.49 1015.50 1015.56 1015.67 1015.81 1015.98 1016.18 1016.39 1016.61 1016.83 1017.04 1017.23 1017.39 1017.51 1017.58 1017.60 1017.55 1017.43 1017.25 1017.02 1016.73 1016.40 1016.06 1015.71 1015.38 1015.08 1014.83 1014.65 1014.53 1014.47 1014.49 1014.57 1014.69 1014.86 1015.05 1015.27 1015.49 1015.72 1015.95 1016.19 1016.44 1016.70
Thickness
5645 5638 5634 5628 5625 5625 5622 5616 5609 5605 5605 5605 5608 5610 5615 5619 5622 5627 5630 5632 5635 5637 5640 5643 5645 5647 5651 5654 5658 5662 5664 5666 5667 5670 5672 5674 5676 5679 5680 5681 5682 5682 5682 5680
5647 5642 5637 5631 5627 5625 5621 5619 5617 5615 5613 5613 5616 5618 5621 5623 5625 5627 5630 5632 5635 5637 5639 5642 5644 5645 5648 5651 5655 5658 5659 5660 5663 5665 5666 5668 5670 5672 5672 5673 5674 5675 5675 5674
5655 5646 5640 5635 5630 5626 5624 5621 5619 5618 5617 5619 5620 5621 5623 5625 5627 5629 5631 5634 5636 5638 5640 5643 5645 5646 5648 5651 5653 5655 5656 5656 5657 5659 5660 5661 5664 5665 5665 5666 5667 5668 5669 5668
5658 5648 5634 5640 5638 5631 5627 5626 5625 5623 5623 5623 5623 5626 5629 5630 5630 5632 5634 5637 5639 5641 5642 5645 5647 5648 5650 5651 5651 5651 5650 5651 5651 5652 5653 5654 5655 5656 5658 5660 5660 5660 5661 5661
5659 5653 5648 5641 5640 5635 5632 5632 5632 5627 5626 5628 5631 5635 5637 5635 5633 5634 5635 5637 5639 5641 5644 5646 5647 5648 5649 5650 5648 5646 5645 5645 5645 5646 5646 5646 5646 5647 5649 5651 5651 5652 5653 5653
5658 5652 5648 5651 5646 5641 5633 5633 5636 5630 5628 5629 5634 5637 5635 5634 5634 5635 5637 5639 5640 5643 5646 5646 5646 5647 5648 5647 5645 5642 5641 5640 5640 5640 5639 5639 5638 5639 5641 5642 5643 5644 5644 5645
5661 5658 5660 5654 5646 5638 5632 5638 5636 5634 5631 5629 5630 5630 5631 5634 5635 5636 5638 5639 5642 5644 5645 5645 5646 5646 5646 5644 5641 5639 5638 5637 5635 5634 5634 5631 5631 5631 5632 5634 5634 5635 5635 5636
5665 5660 5660 5656 5647 5643 5646 5643 5638 5635 5632 5629 5629 5630 5632 5633 5635 5637 5638 5640 5641 5643 5644 5645 5645 5644 5643 5639 5637 5636 5633 5631 5629 5627 5626 5625 5623 5623 5624 5625 5626 5626 5627 5627
5675 5673 5668 5662 5658 5653 5649 5643 5639 5636 5632 5630 5629 5630 5631 5633 5635 5637 5638 5639 5640 5642 5643 5645 5644 5642 5640 5637 5635 5633 5631 5628 5625 5623 5620 5618 5617 5617 5617 5617 5617 5617 5618 5618
5675 5675 5669 5663 5659 5653 5648 5643 5639 5636 5632 5631 5629 5629 5630 5632 5634 5636 5637 5638 5639 5641 5643 5645 5644 5643 5640 5638 5635 5632 5629 5626 5623 5620 5617 5614 5611 5611 5610 5609 5609 5609 5610 5610
5680 5679 5670 5665 5662 5656 5649 5644 5640 5636 5633 5630 5628 5627 5628 5630 5632 5633 5635 5637 5639 5640 5642 5644 5645 5643 5641 5638 5635 5632 5629 5626 5623 5618 5614 5610 5607 5604 5604 5602 5601 5602 5604 5605
5688 5687 5680 5675 5668 5660 5651 5645 5640 5636 5632 5630 5627 5625 5625 5628 5630 5632 5634 5637 5638 5640 5642 5644 5645 5644 5642 5638 5636 5634 5630 5626 5622 5618 5613 5611 5608 5605 5598 5598 5596 5596 5597 5599
5695 5689 5683 5676 5671 5663 5655 5648 5642 5636 5632 5628 5626 5624 5624 5626 5629 5632 5635 5637 5638 5640 5642 5644 5645 5645 5644 5640 5637 5634 5630 5626 5623 5620 5616 5612 5610 5608 5605 5600 5596 5595 5594 5594
5690 5686 5678 5674 5669 5664 5657 5650 5644 5638 5633 5628 5625 5624 5624 5626 5630 5632 5635 5637 5639 5641 5644 5645 5646 5645 5644 5642 5639 5635 5632 5626 5623 5621 5618 5615 5612 5610 5608 5605 5603 5599 5595 5592
5688 5687 5683 5678 5671 5664 5658 5652 5645 5640 5634 5630 5626 5625 5625 5627 5630 5632 5635 5638 5641 5644 5645 5646 5646 5646 5645 5643 5641 5638 5634 5631 5627 5624 5620 5618 5615 5612 5610 5607 5605 5602 5600 5596
5689 5684 5680 5676 5670 5665 5659 5653 5647 5642 5637 5632 5629 5627 5627 5629 5631 5634 5637 5640 5641 5643 5645 5646 5647 5646 5646 5645 5643 5640 5636 5629 5628 5627 5624 5621 5618 5616 5613 5610 5607 5605 5603 5600
5688 5682 5678 5675 5671 5666 5661 5657 5652 5646 5641 5637 5633 5631 5630 5632 5634 5637 5639 5641 5643 5645 5648 5648 5648 5648 5648 5648 5646 5644 5641 5635 5628 5630 5628 5624 5621 5619 5615 5612 5610 5606 5602 5597
5694 5690 5685 5680 5674 5668 5663 5658 5654 5649 5645 5641 5637 5634 5634 5634 5635 5637 5640 5643 5646 5649 5651 5651 5650 5651 5651 5650 5649 5648 5645 5642 5638 5635 5631 5627 5624 5622 5618 5615 5612 5609 5605 5601
5691 5688 5684 5680 5676 5671 5666 5661 5656 5652 5648 5644 5640 5639 5637 5638 5638 5640 5642 5645 5647 5650 5652 5653 5650 5655 5655 5653 5650 5649 5648 5645 5641 5638 5634 5627 5627 5625 5622 5619 5615 5613 5609 5606
5687 5684 5680 5677 5673 5669 5665 5661 5657 5653 5650 5647 5644 5642 5642 5642 5642 5643 5644 5646 5649 5650 5651 5652 5655 5658 5658 5656 5651 5653 5651 5648 5645 5641 5638 5634 5632 5629 5626 5622 5619 5616 5613 5610
5683 5680 5676 5673 5669 5666 5664 5661 5657 5654 5651 5648 5646 5645 5644 5644 5644 5644 5645 5648 5651 5650 5652 5653 5657 5659 5659 5657 5653 5655 5654 5652 5649 5645 5642 5639 5636 5633 5630 5627 5623 5620 5617 5614
5679 5676 5673 5671 5667 5664 5663 5661 5658 5654 5652 5649 5647 5646 5645 5645 5646 5646 5648 5648 5650 5649 5652 5657 5659 5658 5657 5656 5659 5658 5656 5654 5652 5649 5646 5643 5640 5637 5634 5631 5627 5624 5621 5618
5675 5673 5671 5669 5666 5665 5662 5659 5657 5654 5651 5650 5648 5647 5647 5646 5645 5646 5648 5650 5650 5649 5652 5657 5656 5655 5656 5659 5661 5660 5659 5657 5655 5652 5649 5647 5644 5641 5638 5634 5631 5628 5625 5621
5668 5668 5667 5666 5664 5661 5658 5657 5655 5653 5651 5649 5648 5647 5646 5646 5647 5648 5648 5648 5647 5647 5653 5655 5654 5656 5657 5663 5663 5662 5661 5659 5657 5655 5652 5650 5647 5644 5641 5638 5635 5632 5628 5624
5658 5659 5660 5659 5657 5656 5656 5655 5652 5650 5648 5648 5648 5648 5647 5645 5645 5646 5647 5647 5647 5648 5653 5656 5655 5656 5660 5665 5665 5664 5662 5661 5659 5657 5654 5652 5649 5646 5644 5641 5638 5635 5631 5628
5646 5648 5650 5650 5652 5651 5651 5650 5649 5648 5647 5646 5647 5647 5647 5645 5644 5644 5644 5646 5648 5648 5650 5654 5656 5657 5661 5662 5663 5663 5663 5661 5658 5656 5656 5654 5652 5648 5646 5643 5640 5637 5634 5631
5633 5636 5637 5640 5642 5643 5644 5644 5644 5645 5645 5644 5644 5645 5645 5644 5644 5644 5644 5645 5647 5648 5650 5651 5653 5655 5656 5658 5660 5661 5662 5662 5661 5659 5657 5655 5653 5651 5648 5645 5642 5639 5635 5632